Location: Unspecified
(43.4680°N, 87.1740°E)
Time: 21:40:49
(UTC+00:00)

IRS-1D - Pass Details

Date: 17 April 2021
Orbit: 740 x 816 km, 98.6° (Epoch: 12 May)

Event Time Altitude Azimuth Distance (km) Brightness Sun altitude
Rises 20:50:39 0° 11° (N) 3,252 7.6 -24.7°
Reaches altitude 10° 20:52:57 10° 9° (N) 2,332 6.7 -24.4°
Maximum altitude 20:58:04 70° 287° (WNW) 841 3.5 -23.7°
Enters shadow 20:58:45 61° 240° (WSW) 891 3.5 -23.6°
